COSMOS 2213

Satellite information

Favourite Embed

Satellite Type and Status

PAYLOADIN ORBIT

Key statistics

Satellite COSMOS 2213 at a glance.

Uptime

11949

Days in orbit

Revolutions

≈ 12.6

Per day

Orbit

LEO

Low Earth Orbit

Inclination

82.6

Latest

Satellite identification and parameters

Extended collection of information and parameters for COSMOS 2213.

Object identification

Identified? True

Debris? False

Object name: COSMOS 2213

International designator: 1992-068C

Object number (NORAD): 22184

Object ID (CCSDS): 22184

Country: COMMONWEALTH OF INDEPENDENT STATES (CIS)

Current information (Y/N): Y

RCS size: LARGE

Orbital parameters

Period: 114.05 minutes

Inclination: 82.5981 deg

SMA: 7790.364 km

Apoapsis: 1414.655 km

Periapsis: 1409.802 km

RAAN: 206.2245 deg

Eccentricy: 0.0003115

Argument of periapsis: 164.773 deg

Mean anomaly: 8.9592 deg

Mean motion: 12.62601098 rev/day

Mean motion (dot): 0.00000012 rev/day2

B* drag term: 0.000009483 1/REarth

Two-line elements (TLE)

Creation date: July 8, 2025, 2:27 a.m.

Reference frame: TEME

Reference center: EARTH

Epoch: July 7, 2025, 7:47 p.m. UTC

TLE line 0: 0 COSMOS 2213

TLE line 1: 1 22184U 92068C 25188.82475622 .00000012 00000-0 94830-5 0 9994

TLE line 2: 2 22184 82.5981 206.2245 0003115 164.7730 8.9592 12.62601098507494

Live tracking on map

Real-time ground track for satellite COSMOS 2213.

In-orbit conjunctions

A list of the most updated potential collisions computed for object COSMOS 2213.

Target Orbit TCA Probability of collision Miss distance Type
DELTA 1 DEB HEO 2024-10-19 20:35:06 0.0001031178 979.0 (m) DEBRIS

Associated space launch

Second generation store-dump military communications satellite

COSMOS 2213 was lifted into orbit during the mission ‘Tsiklon-3 | Strela-3 83 to 88’, on board a Tsiklon-3 space rocket.

The launch took place on Oct. 20, 1992, 12:58 p.m. from 32/1.

For more information about the launch, click the button.

Launch to space Tsiklon-3 | Strela-3 83 to 88
Tsiklon-3 | Strela-3 83 to 88

Agency: N/A

Status: Launch Successful

Launch date: Oct. 20, 1992, 12:58 p.m. UTC

Rocket: Tsiklon-3

Launch pad: 32/1

Location: Plesetsk Cosmodrome, Russian Federation

...

Latest news about this satellite

There are no fresh news available about this satellite. Check back as we update our databases every day.


Newsletter sign-up

Weekly statistics, charts and insights to help you stay on top of the space industry.